Temperature
29 30 30 31 31 31 31 31 31 30 30 29 28 28 28 28 28 27 26 26 25 25 24 23 23 22 22 21 21 21 20 19 19 19 18 18 18 18 18 17 17 18 18 17
28 29 30 30 30 31 30 31 31 30 29 29 28 27 27 27 27 26 26 25 24 24 23 23 22 22 21 21 21 20 20 19 19 19 18 18 18 18 18 17 17 17 17 17
27 28 28 28 29 30 30 31 30 29 28 28 27 27 27 27 26 25 25 24 23 22 22 22 22 21 21 21 20 20 20 19 19 19 18 18 18 18 17 17 17 17 18 17
26 26 25 27 29 29 29 30 30 29 28 27 27 26 26 25 25 24 24 23 22 22 21 21 21 21 21 20 20 20 19 19 19 18 18 18 18 18 17 17 17 17 17 17
26 26 26 27 28 29 28 28 28 28 27 26 26 26 25 24 23 23 22 22 21 21 21 20 20 20 20 20 19 19 19 19 18 18 18 18 18 18 17 17 17 17 17 17
25 25 25 26 28 28 28 26 27 27 26 25 25 24 24 23 22 22 21 21 21 20 20 20 20 19 19 19 19 18 18 18 18 18 18 17 17 17 17 17 17 17 16 16
25 25 25 26 27 28 25 24 25 25 25 24 24 23 22 22 21 21 20 20 20 20 19 19 19 19 18 18 18 18 18 18 17 17 17 17 17 17 17 17 17 16 16 16
24 24 24 25 26 24 23 24 24 24 23 23 22 22 21 20 20 20 19 19 19 19 18 18 18 18 17 17 17 17 17 17 17 17 17 16 16 16 16 16 16 16 16 16
23 23 23 23 23 23 23 23 23 23 22 22 21 20 20 19 19 19 18 18 18 18 17 17 17 17 17 16 16 16 16 16 16 16 16 16 16 16 16 16 16 16 15 15
23 23 23 22 22 22 22 21 22 21 21 21 20 19 19 18 18 18 17 17 17 17 17 16 16 16 16 16 16 16 16 16 16 16 16 16 15 15 15 15 15 15 15 15
22 22 22 21 21 21 21 21 21 20 20 20 19 19 18 17 17 17 17 16 16 16 16 16 16 16 16 16 16 15 15 15 15 15 15 15 15 15 15 15 15 15 15 14
21 21 21 20 20 20 20 20 20 20 19 19 19 18 17 17 16 16 16 16 15 15 15 15 15 15 15 15 15 15 15 15 15 15 15 15 15 14 14 14 14 14 14 14
20 20 19 19 19 19 19 19 19 19 18 18 18 17 17 16 16 16 15 15 15 15 15 14 14 14 14 14 14 14 14 14 14 14 14 14 14 14 14 14 14 14 13 13
19 19 19 19 19 19 19 18 18 18 18 17 17 16 16 16 15 15 15 14 14 14 14 14 14 13 13 13 13 13 13 14 14 14 14 14 14 14 14 14 14 13 13 13
19 19 18 18 18 18 18 18 17 17 17 17 16 16 15 15 15 15 14 14 14 14 14 13 13 13 13 13 13 13 13 14 14 14 14 14 14 14 14 13 13 13 12 12
18 18 18 18 18 18 17 17 17 17 16 16 15 15 15 15 14 14 14 14 13 13 13 13 13 13 13 13 13 13 13 13 14 14 14 14 13 13 13 13 13 12 12 12
18 18 17 17 17 17 17 17 16 16 16 15 15 14 14 14 13 13 13 13 13 13 12 12 12 12 12 12 12 13 13 13 13 14 13 13 13 13 13 12 12 12 12 11
17 17 17 17 17 16 16 16 16 16 15 15 14 14 14 13 13 13 13 12 12 12 12 12 12 12 12 12 12 12 13 13 13 13 13 13 13 12 12 12 12 12 12 11
17 17 17 16 16 16 16 15 15 15 14 14 14 13 13 13 13 12 12 12 12 12 12 12 12 12 11 12 12 12 12 13 13 13 12 12 12 12 12 12 12 12 11 11
17 17 16 16 16 16 15 15 15 14 14 14 13 13 13 12 12 12 12 12 12 12 11 11 11 11 11 11 12 12 12 12 12 12 12 12 12 12 12 12 11 11 11 11
16 16 16 16 15 15 15 14 14 14 13 13 13 12 12 12 12 12 12 11 11 11 11 11 11 11 11 11 11 11 12 12 12 12 12 12 12 11 11 11 11 11 10 10
16 16 15 15 15 14 14 14 14 13 13 13 12 12 12 12 12 12 11 11 11 11 11 11 11 11 11 11 11 11 11 11 11 11 11 11 11 11 10 10 10 10 10 9
15 15 15 14 14 14 13 13 13 13 13 12 12 12 12 12 12 12 11 11 11 11 11 11 11 10 10 10 11 11 11 11 11 11 11 11 10 10 10 10 9 9 9 9
14 14 14 14 14 13 13 13 13 12 12 12 12 12 12 12 12 11 11 11 11 11 10 10 10 10 10 10 10 10 11 10 10 10 10 10 10 10 9 9 9 9 8 8
14 14 14 14 13 13 13 13 12 12 12 12 12 12 12 12 12 11 11 11 11 11 10 10 10 10 10 10 10 10 10 10 10 10 10 10 9 9 9 9 8 8 8 8
13 14 13 13 13 13 13 13 12 12 12 12 12 12 12 12 11 11 11 11 11 11 10 10 10 10 10 10 10 10 10 10 10 9 9 9 9 9 8 8 8 8 7 7
13 13 13 13 13 13 13 13 13 12 12 12 12 12 12 11 11 11 11 11 11 11 10 10 10 10 10 10 10 10 10 9 9 9 9 8 8 8 8 7 7 7 6 6
Wind_Speed
13 14 14 13 13 13 13 14 12 7 5 4 2 1 3 4 6 6 6 5 5 6 6 6 6 6 5 4 5 5 6 7 8 7 6 6 5 5 5 4 5 4 3 3
14 14 14 14 13 12 12 12 11 7 3 2 3 3 3 5 6 5 5 5 5 5 5 5 5 6 5 5 4 5 5 5 6 7 6 6 5 5 5 5 4 4 4 3
12 12 13 13 12 12 9 9 7 4 2 3 2 1 4 5 5 4 4 5 4 4 3 4 4 4 5 5 5 5 4 4 4 5 5 5 5 5 5 5 4 4 4 4
10 11 14 9 7 8 7 6 3 1 1 2 2 1 3 5 4 4 3 4 4 3 3 3 3 4 4 4 5 5 5 4 3 4 4 5 5 5 5 5 5 5 4 4
10 12 11 8 6 7 6 4 3 0 1 1 1 1 3 5 4 4 3 3 3 3 3 2 3 3 3 4 4 4 5 5 4 4 4 5 5 5 4 4 4 4 4 4
10 12 11 6 6 5 6 6 4 2 2 2 2 1 1 3 4 4 4 4 3 2 2 2 2 2 2 3 3 3 3 4 4 4 4 5 4 4 3 3 3 4 4 4
13 12 6 5 5 4 6 3 4 3 2 1 1 1 2 3 4 4 4 3 3 4 3 3 3 3 2 2 1 2 2 2 3 3 4 4 3 3 3 3 4 4 4 4
10 11 5 6 3 1 2 4 4 5 4 4 5 6 5 4 4 4 4 3 4 4 4 4 4 3 3 2 1 2 2 2 2 1 2 2 3 3 3 3 4 4 4 3
3 3 3 6 4 4 4 5 4 5 4 5 5 5 4 4 3 3 3 3 4 4 4 3 3 3 2 2 2 2 2 2 2 1 0 0 2 2 2 3 3 3 3 3
3 1 3 3 3 5 5 4 4 4 3 4 4 4 3 4 4 4 5 4 4 4 4 4 4 3 2 2 2 1 2 2 1 1 1 1 1 1 1 1 1 2 1 1
1 1 2 3 5 5 4 3 4 4 3 3 4 3 4 4 4 5 5 4 4 4 4 4 4 3 3 2 2 1 1 1 1 1 2 1 1 0 0 1 1 1 1 0
1 1 1 0 2 2 2 2 2 3 3 3 3 3 4 4 4 4 4 4 4 4 4 4 3 4 3 3 2 1 0 1 1 1 1 1 1 1 3 2 3 2 2 1
1 2 2 1 2 2 2 2 3 3 3 3 3 3 4 4 4 5 4 3 4 4 4 3 3 3 4 3 3 3 2 1 1 1 1 0 0 1 1 1 2 1 1 1
3 2 1 2 3 2 2 3 3 3 3 2 3 3 4 4 5 6 5 3 3 3 3 3 3 3 3 3 3 2 2 1 2 1 1 1 1 1 0 1 1 0 0 1
1 0 0 1 1 1 2 2 3 3 3 4 4 4 4 4 5 5 5 4 4 4 3 4 4 3 3 2 2 2 3 2 2 2 1 1 1 2 1 1 1 2 2 2
1 0 1 1 1 0 1 1 1 2 3 4 5 5 5 6 6 6 5 4 4 3 3 4 3 3 3 3 2 2 1 1 1 2 1 2 2 2 2 2 2 2 2 2
1 1 1 1 0 0 0 1 2 3 4 5 6 6 6 6 5 5 5 4 4 4 4 3 3 3 3 3 3 3 2 0 0 2 2 2 2 2 2 2 2 2 2 3
2 1 1 1 1 1 1 1 3 4 5 6 7 6 5 5 4 3 3 4 4 4 4 3 3 3 3 4 4 3 3 2 1 1 2 2 2 2 2 2 2 2 2 2
2 2 2 2 2 2 2 2 4 5 6 6 6 6 4 4 4 4 3 3 3 2 2 3 3 3 3 4 4 2 2 2 2 1 1 1 1 2 2 2 3 3 2 3
2 2 2 1 2 3 4 4 5 5 5 6 6 5 5 4 4 3 3 2 2 3 3 3 3 3 3 4 5 3 3 3 3 2 2 2 2 2 3 3 3 3 4 3
2 3 3 3 4 4 5 5 5 5 5 6 6 5 4 4 4 3 2 2 3 3 3 3 2 2 3 4 4 4 4 3 3 3 3 3 3 3 3 3 3 3 3 4
1 2 3 4 5 5 5 5 5 5 5 5 5 5 5 4 4 3 3 2 3 4 2 1 2 4 5 4 3 3 3 4 3 3 3 3 3 3 3 3 3 3 4 4
2 3 4 5 5 5 5 5 5 5 5 5 4 4 4 3 3 3 2 2 3 3 2 3 4 5 5 3 3 3 3 3 3 4 3 3 3 3 3 3 3 3 3 3
4 4 5 5 5 5 5 4 5 4 4 4 4 3 3 3 3 3 3 4 4 3 2 3 2 3 2 1 3 3 3 3 3 3 4 3 3 3 3 4 4 4 4 4
4 5 5 5 5 4 4 5 4 3 4 3 4 4 3 2 2 3 3 4 5 3 1 2 2 2 1 2 2 3 3 4 4 4 4 4 4 4 4 4 4 4 4 4
4 4 4 4 3 3 4 4 4 3 3 3 2 3 3 3 3 3 2 3 3 2 0 1 1 1 1 1 2 2 2 2 2 3 4 4 5 5 4 4 5 5 4 5
5 5 4 4 4 3 3 3 3 3 3 3 3 3 3 3 2 2 2 1 1 1 1 2 1 1 1 2 2 3 3 3 4 4 4 4 4 4 4 5 4 4 5 5
Wind_Direction
267 270 267 263 253 253 257 263 266 258 216 198 149 121 123 122 122 121 123 124 120 130 133 140 147 149 154 157 157 163 165 168 170 171 173 179 181 181 189 194 200 196 200 207
260 263 265 266 266 260 260 261 261 258 242 152 107 100 111 123 126 130 131 119 108 110 131 143 148 153 153 151 149 150 157 166 164 170 176 185 185 183 188 195 202 200 203 207
258 259 265 259 259 255 254 266 266 254 192 130 84 128 133 123 128 135 142 129 124 124 123 142 153 150 150 152 152 156 163 168 166 167 174 182 193 187 196 199 202 205 209 212
263 261 256 262 279 277 272 278 282 257 83 104 126 186 117 108 111 113 116 125 128 131 139 156 154 154 152 163 161 164 167 173 172 174 177 179 189 195 201 202 205 208 215 219
257 253 249 251 256 260 260 274 314 301 89 78 72 82 87 79 90 98 101 97 109 131 149 140 155 156 156 169 166 168 173 177 179 181 181 185 193 201 200 201 207 209 212 215
253 259 259 254 256 270 271 247 341 14 103 130 143 203 136 78 82 94 85 95 94 98 101 111 117 131 153 169 171 178 181 180 174 182 189 194 197 201 207 208 218 223 223 216
250 257 256 290 292 270 246 261 329 3 43 76 75 88 101 89 76 81 83 73 91 98 85 69 76 93 106 135 157 160 157 167 167 185 202 194 192 193 210 216 219 223 226 221
249 252 255 346 332 344 30 23 20 36 53 59 74 89 101 96 84 83 88 86 87 87 86 79 79 88 91 77 70 92 109 123 138 173 227 196 185 204 214 224 223 221 221 228
260 261 13 25 45 52 41 29 28 52 60 73 85 93 97 92 91 99 95 87 86 88 85 79 85 89 86 65 61 93 107 104 98 85 96 106 201 209 215 218 226 228 214 222
230 171 45 30 44 49 45 38 31 57 73 87 94 89 83 91 88 90 91 92 85 79 80 76 72 76 82 79 75 102 121 127 124 130 187 176 165 229 236 287 266 249 239 238
206 117 50 20 37 39 28 29 52 76 101 105 107 101 92 95 85 88 93 92 88 80 78 75 69 64 69 75 83 97 164 178 188 222 227 177 147 10 231 11 32 284 260 223
274 352 309 54 43 42 14 27 78 91 97 103 111 117 109 104 99 98 95 91 90 85 77 68 61 47 43 47 48 42 243 253 263 246 214 201 148 121 64 85 73 51 63 65
354 21 16 332 10 20 45 57 67 88 100 103 103 113 112 109 106 107 98 95 96 97 90 74 62 54 36 34 35 20 355 339 318 335 337 352 157 180 187 74 88 61 34 11
62 73 11 17 19 20 50 71 77 85 88 101 110 110 111 109 103 104 102 97 91 88 87 78 65 57 49 45 31 6 337 358 349 349 9 351 323 292 205 156 127 202 229 247
9 132 176 11 352 51 71 100 111 116 116 108 112 110 113 114 110 104 97 95 89 80 72 66 55 43 24 33 18 340 326 344 359 341 358 7 346 344 10 34 80 75 72 39
284 242 175 193 300 113 110 117 124 129 119 113 109 109 110 103 98 96 93 93 90 84 69 60 48 24 5 0 348 317 303 357 330 319 339 53 31 1 6 39 56 56 44 39
243 255 217 208 269 32 85 151 155 147 128 122 116 111 111 107 98 96 95 92 80 74 67 57 39 23 8 357 334 321 320 64 209 323 1 20 29 28 34 37 35 33 46 66
237 251 235 230 218 141 99 104 125 126 124 119 116 114 112 111 111 106 105 99 88 74 59 49 37 21 5 354 340 333 334 2 23 14 24 21 16 17 25 36 28 26 41 63
194 199 196 180 163 143 133 123 111 114 116 117 118 117 113 112 107 104 99 94 91 86 62 51 27 354 351 2 349 319 321 339 9 26 17 51 7 14 26 23 19 21 20 23
173 174 166 154 133 127 121 110 112 113 118 115 113 115 115 110 112 114 106 90 68 57 66 54 33 357 354 12 356 338 346 347 357 16 21 21 25 24 22 19 21 18 18 19
164 158 151 134 122 123 121 120 118 117 115 117 120 120 116 112 111 106 111 101 73 60 67 66 25 355 351 349 333 338 350 358 7 15 21 18 24 23 22 23 20 20 22 18
136 130 127 123 119 116 116 119 119 119 118 118 122 123 121 120 115 106 84 68 77 68 59 34 27 24 358 344 350 355 3 5 7 14 22 25 26 21 20 20 17 19 24 20
126 121 113 108 108 108 110 116 119 117 119 124 129 130 133 129 131 127 109 87 89 88 63 32 34 26 2 354 348 357 9 9 10 14 25 37 30 24 19 22 24 19 16 13
126 123 121 117 117 120 117 112 110 117 127 135 138 140 142 135 123 118 111 106 104 112 70 64 55 4 344 354 348 350 1 12 15 20 25 24 19 23 26 27 22 17 14 7
125 129 127 124 124 122 122 123 120 127 130 124 128 133 138 134 122 112 112 115 133 147 128 133 203 253 316 351 344 355 8 14 15 8 11 20 23 22 25 25 21 12 5 359
129 133 120 119 121 128 133 136 146 149 137 134 136 124 121 117 110 112 115 118 115 133 92 121 160 209 258 317 348 360 11 33 27 23 25 19 19 20 25 19 7 3 4 5
124 120 119 129 127 122 124 129 129 130 127 121 117 109 102 95 93 89 76 65 88 80 40 28 18 4 6 10 10 14 20 22 30 33 24 19 17 19 16 14 10 10 7 7
Height
1452 1447 1446 1446 1446 1446 1449 1450 1456 1456 1457 1457 1457 1460 1462 1465 1469 1472 1476 1478 1481 1484 1487 1490 1493 1495 1498 1500 1502 1503 1505 1506 1508 1509 1511 1513 1514 1516 1517 1519 1520 1520 1521 1521
1456 1450 1448 1449 1446 1445 1447 1447 1448 1450 1456 1455 1457 1460 1464 1467 1470 1473 1477 1479 1481 1484 1486 1489 1491 1494 1496 1498 1499 1501 1502 1504 1506 1507 1509 1511 1512 1513 1515 1516 1517 1517 1518 1518
1463 1455 1454 1459 1450 1447 1446 1444 1448 1456 1458 1457 1460 1463 1465 1468 1471 1475 1478 1480 1482 1484 1486 1488 1490 1492 1493 1495 1497 1499 1501 1502 1504 1505 1506 1508 1509 1510 1511 1512 1513 1514 1515 1515
1463 1465 1476 1458 1444 1444 1446 1446 1446 1451 1455 1458 1462 1465 1466 1469 1473 1476 1479 1480 1481 1483 1485 1487 1489 1490 1492 1494 1495 1497 1498 1500 1501 1503 1503 1505 1506 1507 1508 1509 1510 1510 1511 1512
1464 1468 1464 1452 1447 1446 1451 1454 1452 1454 1458 1461 1463 1465 1468 1471 1474 1476 1478 1480 1481 1483 1484 1486 1487 1488 1490 1491 1493 1494 1496 1497 1498 1500 1501 1502 1503 1504 1505 1506 1506 1507 1508 1509
1463 1470 1471 1458 1447 1446 1451 1460 1456 1456 1459 1462 1464 1467 1470 1473 1475 1476 1478 1479 1480 1482 1483 1484 1486 1487 1487 1489 1490 1492 1493 1494 1495 1497 1498 1499 1500 1501 1502 1503 1504 1505 1505 1506
1462 1465 1462 1453 1448 1448 1463 1466 1458 1458 1461 1463 1465 1469 1473 1474 1476 1477 1478 1479 1480 1481 1482 1483 1484 1485 1486 1487 1488 1489 1490 1491 1493 1494 1495 1496 1497 1498 1499 1500 1501 1502 1502 1502
1461 1466 1468 1454 1452 1459 1463 1460 1460 1461 1463 1465 1466 1469 1472 1474 1476 1477 1478 1479 1479 1480 1481 1482 1483 1484 1484 1485 1486 1487 1488 1488 1490 1491 1492 1494 1494 1495 1496 1497 1498 1498 1498 1498
1461 1464 1461 1460 1460 1461 1461 1462 1462 1463 1465 1467 1469 1471 1473 1475 1477 1477 1478 1479 1479 1479 1480 1482 1482 1483 1483 1484 1485 1485 1486 1486 1487 1488 1489 1490 1491 1492 1493 1494 1495 1495 1495 1495
1459 1459 1460 1462 1462 1462 1463 1464 1464 1465 1466 1468 1471 1473 1474 1476 1477 1477 1477 1478 1479 1479 1479 1481 1482 1483 1483 1483 1483 1484 1484 1485 1486 1486 1487 1488 1488 1489 1490 1491 1492 1492 1492 1493
1459 1462 1462 1464 1464 1465 1466 1465 1465 1465 1467 1469 1471 1473 1475 1476 1477 1477 1478 1479 1479 1480 1479 1480 1481 1481 1482 1482 1482 1483 1483 1484 1484 1485 1485 1486 1485 1486 1486 1487 1488 1488 1489 1489
1463 1464 1465 1467 1466 1466 1466 1466 1466 1466 1468 1470 1472 1474 1475 1477 1478 1478 1479 1479 1479 1480 1480 1480 1480 1480 1481 1481 1481 1481 1482 1482 1482 1483 1484 1484 1483 1484 1484 1485 1485 1486 1486 1486
1464 1464 1465 1465 1466 1466 1466 1467 1467 1467 1469 1470 1473 1474 1475 1477 1478 1478 1479 1479 1480 1480 1480 1480 1480 1480 1480 1480 1481 1481 1481 1481 1481 1481 1481 1482 1481 1482 1483 1483 1483 1483 1483 1484
1465 1466 1467 1467 1467 1467 1467 1468 1468 1469 1470 1472 1473 1475 1476 1477 1477 1478 1479 1480 1480 1480 1480 1481 1481 1481 1481 1481 1481 1481 1481 1481 1480 1480 1480 1481 1480 1480 1481 1481 1480 1480 1481 1482
1467 1467 1468 1468 1468 1468 1469 1469 1470 1470 1471 1472 1473 1475 1476 1477 1478 1478 1480 1481 1481 1481 1481 1481 1481 1482 1481 1481 1481 1481 1481 1481 1480 1480 1480 1480 1480 1479 1479 1479 1479 1479 1479 1479
1467 1467 1467 1468 1468 1469 1469 1470 1471 1471 1472 1473 1474 1475 1476 1478 1479 1479 1480 1481 1481 1482 1482 1481 1481 1481 1481 1481 1481 1480 1480 1480 1479 1479 1479 1478 1478 1479 1479 1478 1478 1478 1478 1478
1467 1468 1468 1468 1469 1469 1470 1470 1471 1472 1473 1474 1475 1476 1477 1479 1479 1480 1481 1482 1482 1482 1482 1482 1481 1481 1481 1481 1480 1480 1480 1479 1479 1479 1479 1479 1479 1479 1479 1479 1479 1479 1478 1478
1468 1468 1468 1469 1469 1470 1470 1471 1471 1472 1473 1475 1476 1477 1479 1479 1480 1480 1481 1482 1482 1482 1482 1482 1482 1481 1481 1481 1480 1480 1479 1479 1479 1479 1479 1479 1479 1479 1479 1479 1479 1478 1478 1478
1467 1468 1468 1469 1469 1470 1471 1471 1472 1472 1474 1475 1477 1478 1479 1480 1481 1481 1482 1482 1482 1482 1482 1482 1482 1482 1481 1481 1480 1480 1479 1479 1479 1479 1479 1478 1478 1478 1478 1478 1478 1478 1478 1477
1466 1467 1468 1469 1469 1470 1471 1472 1472 1474 1475 1476 1478 1479 1480 1481 1482 1482 1483 1483 1483 1483 1483 1482 1482 1482 1482 1481 1481 1480 1480 1480 1479 1479 1478 1478 1478 1478 1478 1478 1478 1477 1477 1476
1466 1467 1468 1469 1470 1471 1472 1473 1474 1475 1476 1477 1478 1480 1481 1481 1482 1483 1483 1484 1484 1483 1483 1483 1482 1482 1482 1482 1481 1481 1480 1480 1479 1479 1478 1478 1478 1478 1478 1478 1477 1477 1476 1476
1466 1467 1468 1469 1470 1471 1473 1474 1475 1476 1477 1478 1479 1480 1481 1482 1483 1483 1484 1484 1484 1483 1483 1483 1483 1482 1482 1482 1481 1481 1481 1480 1480 1479 1479 1478 1478 1478 1478 1477 1477 1477 1476 1475
1466 1468 1468 1469 1471 1472 1473 1475 1476 1477 1478 1478 1479 1480 1481 1482 1483 1483 1484 1484 1484 1483 1483 1483 1482 1482 1482 1482 1481 1481 1481 1480 1480 1480 1479 1479 1478 1478 1478 1477 1476 1476 1475 1474
1467 1468 1469 1470 1472 1473 1474 1476 1477 1478 1478 1479 1480 1481 1482 1483 1483 1484 1484 1484 1484 1484 1484 1483 1483 1482 1482 1482 1482 1481 1481 1481 1481 1480 1480 1479 1479 1478 1477 1477 1476 1475 1474 1473
1467 1468 1470 1471 1472 1474 1475 1476 1477 1479 1479 1480 1481 1482 1482 1483 1484 1484 1484 1484 1484 1484 1484 1484 1483 1483 1483 1482 1482 1482 1481 1481 1481 1480 1480 1479 1479 1478 1477 1476 1475 1474 1473 1472
1468 1469 1471 1472 1473 1475 1476 1477 1478 1479 1480 1480 1481 1482 1483 1483 1484 1484 1485 1485 1484 1484 1484 1484 1484 1484 1483 1483 1482 1482 1482 1481 1481 1480 1480 1479 1478 1477 1476 1475 1474 1473 1471 1470
1468 1470 1472 1473 1475 1476 1477 1478 1479 1480 1480 1481 1482 1483 1484 1484 1485 1485 1485 1485 1485 1485 1485 1484 1484 1484 1483 1483 1483 1482 1482 1481 1481 1480 1479 1478 1477 1476 1475 1474 1472 1471 1470 1468